[[[{"header":{"parameterUnit":"kt","parameterCategory":2,"dx":1,"dy":1,"la1":30.253999710083008,"la2":30.299108505249023,"lo1":-89.0895004272461,"lo2":-89.04439544677734,"nx":28,"ny":28,"refTime":"2022-10-06T21:00:00:Z","depth":0,"parameterNumber":1,"parameterNumberName":"U-component_of_WINDS"},"data":[0.4071,0.405,0.4055,0.4033,0.4033,0.4018,0.4015,0.401,0.4007,0.399,0.3981,0.3983,0.3981,0.3971,0.3961,0.3962,0.3957,0.3948,0.395,0.3989,0.3995,0.4,0.4005,0.3947,0.3947,0.3909,0.3909,0.3908,0.4103,0.4103,0.4093,0.4085,0.4076,0.4088,0.4083,0.4074,0.4061,0.4057,0.4047,0.4032,0.4021,0.4022,0.4011,0.4001,0.4005,0.3998,0.3998,0.3998,0.404,0.4046,0.3995,0.3995,0.3995,0.3995,0.3995,0.3995,0.4163,0.415,0.4147,0.4135,0.4132,0.4127,0.4115,0.4117,0.4106,0.4095,0.4101,0.4085,0.4081,0.4069,0.4065,0.4053,0.4061,0.4054,0.4052,0.405,0.4047,0.4103,0.4051,0.4051,0.4051,0.4051,0.4051,0,0.4207,0.4211,0.4201,0.4191,0.4183,0.4175,0.4169,0.4162,0.417,0.416,0.4147,0.4139,0.4124,0.4111,0.4101,0.4098,0.4108,0.4109,0.4103,0.41,0.41,0.41,0.4169,0.411,0.411,0.411,0.4111,0.4111,0.4267,0.4251,0.4249,0.4241,0.4238,0.4225,0.4217,0.4226,0.4218,0.4211,0.4198,0.4185,0.4175,0.4151,0.4151,0.414,0.4144,0.4121,0.4142,0.4141,0.4144,0.4144,0.4143,0.4116,0.4116,0.4115,0.4115,0,0.4301,0.4306,0.4282,0.4281,0.428,0.4262,0.4261,0.4248,0.425,0.4232,0.4228,0.4231,0.4217,0.4221,0.4204,0.4207,0.4178,0.4183,0.4181,0.4181,0.4162,0.4163,0.4096,0.4088,0.4149,0.4148,0.4147,0,0.4354,0.4331,0.4341,0.4326,0.4302,0.431,0.4286,0.4285,0.4281,0.4267,0.4279,0.4265,0.4272,0.4259,0.4262,0.4239,0.4236,0.4236,0.4237,0.4235,0.4235,0.4229,0.4232,0.424,0.424,0.4241,0.4241,0,0.4405,0.4383,0.436,0.4355,0.4351,0.4339,0.4337,0.4331,0.4323,0.4313,0.4308,0.4296,0.4289,0.4279,0.4283,0.4297,0.4256,0.4275,0.4256,0.4256,0.4245,0.4245,0.4186,0.4241,0.4241,0.4241,0.4242,0,0.4448,0.4438,0.4403,0.44,0.4393,0.4377,0.4366,0.4353,0.4346,0.4347,0.4339,0.4346,0.4326,0.4346,0.4319,0.4336,0.4329,0.4327,0.4326,0.4323,0.4345,0.431,0.4254,0.4248,0.4323,0.4323,0.4324,0,0.4506,0.4471,0.4477,0.4443,0.4427,0.4442,0.4424,0.4417,0.4417,0.4403,0.4403,0.4387,0.4402,0.4397,0.4384,0.4382,0.436,0.4385,0.4365,0.4364,0.4366,0.4315,0.4305,0.4266,0.4333,0.4332,0.4331,0,0.4551,0.4545,0.4538,0.4533,0.4525,0.4511,0.4491,0.4476,0.4467,0.4457,0.444,0.4417,0.4428,0.4419,0.4423,0.4408,0.4375,0.4421,0.4421,0.4413,0.4337,0.4328,0.4322,0.4381,0.438,0.4379,0.4338,0,0.4615,0.4597,0.4579,0.4566,0.4556,0.4534,0.4537,0.4526,0.4532,0.4531,0.4505,0.4499,0.4482,0.4475,0.4479,0.4444,0.4451,0.4462,0.448,0.4446,0.4432,0.4427,0.45,0.4501,0.4501,0.4501,0,0,0.4669,0.4643,0.4649,0.4629,0.4621,0.4635,0.4611,0.4604,0.4589,0.4583,0.4594,0.4559,0.4552,0.452,0.451,0.4503,0.4497,0.4508,0.4462,0.4458,0.4453,0.4439,0.4433,0.4502,0.4502,0.4503,0.4503,0,0.4693,0.4687,0.4663,0.4657,0.4647,0.4647,0.4642,0.4634,0.4632,0.4606,0.4617,0.4601,0.4572,0.4564,0.4556,0.4513,0.452,0.4507,0.4483,0.4467,0.4461,0.4457,0.4442,0.4436,0.4504,0.4504,0.4504,0,0.4737,0.4732,0.472,0.4701,0.4695,0.4677,0.4698,0.4677,0.4664,0.4678,0.4651,0.4647,0.4636,0.4605,0.4591,0.46,0.4542,0.456,0.4557,0.4555,0.4539,0.4533,0.4527,0.4598,0.4598,0.4598,0,0,0.4757,0.474,0.4735,0.4706,0.4702,0.4701,0.4691,0.4695,0.4685,0.4681,0.4676,0.4665,0.4649,0.4637,0.4622,0.4587,0.4585,0.4571,0.4567,0.4563,0.4559,0.4542,0.4536,0.46,0.46,0.46,0,0,0.4766,0.476,0.4767,0.4733,0.4724,0.4717,0.4699,0.4707,0.4693,0.4695,0.4699,0.4696,0.4667,0.4662,0.4679,0.4628,0.4646,0.4642,0.4632,0.4626,0.4622,0.4623,0.4697,0,0,0,0,0,0.4791,0.4761,0.4767,0.4762,0.4736,0.4714,0.471,0.4713,0.4727,0.4713,0.471,0.4719,0.4672,0.4687,0.4681,0.4662,0.4615,0.4613,0.461,0.4589,0.4583,0.4578,0,0,0,0,0,0,0.4789,0.4782,0.4768,0.4759,0.4754,0.4715,0.4738,0.4738,0.4728,0.4731,0.4719,0.4718,0.472,0.469,0.4685,0.4667,0.4699,0.4614,0.4612,0.461,0.4587,0.4582,0.4578,0,0,0,0,0,0.4787,0.4782,0.474,0.476,0.4755,0.4752,0.4739,0.4739,0.4732,0.4726,0.4726,0.4735,0.4719,0.4715,0.4687,0.4669,0.4702,0.47,0.4613,0.4611,0.4609,0.4584,0,0,0,0,0,0,0.4786,0.4782,0.4739,0.4737,0.4771,0.4754,0.4752,0.4741,0.4728,0.4727,0.4742,0.4744,0.4718,0.4715,0.4712,0.467,0.4705,0.4703,0.4702,0.4611,0.461,0.4609,0,0,0,0,0,0,0.4784,0.478,0.4738,0.4752,0.4752,0.4756,0.4754,0.473,0.4728,0.4745,0.4746,0.4743,0.4723,0.4715,0.4713,0.4675,0.4708,0.4706,0.4704,0.4704,0.461,0.4609,0,0,0,0,0,0,0.4783,0.4779,0.4752,0.4752,0.4752,0.4737,0.4735,0.4708,0.474,0.4745,0.4743,0.4745,0.4723,0.472,0.4713,0.4677,0.4676,0.4708,0.4706,0.4705,0.4705,0,0,0,0,0,0,0,0.4781,0.4804,0.4747,0.4753,0.4753,0.4724,0.4724,0.4723,0.4741,0.4742,0.4743,0.4744,0.4718,0.4716,0.4714,0.4678,0,0,0.4708,0.4707,0,0,0,0,0,0,0,0,0.4806,0.4805,0.4747,0.4747,0.4747,0.4724,0.4724,0.4723,0.4741,0.4742,0.4743,0.4744,0.4718,0.4716,0.4714,0,0,0,0,0,0,0,0,0,0,0,0,0,0,0,0.4747,0.4747,0,0.4724,0.4724,0.4724,0.4741,0.4742,0.4743,0.4743,0.4717,0.4716,0.4715,0,0,0,0,0,0,0,0,0,0,0,0,0,0,0,0,0,0,0,0,0,0,0,0,0,0,0,0,0,0,0,0,0,0,0,0,0,0,0,0,0,0,0,0,0,0,0,0,0,0,0,0,0,0,0,0,0,0,0,0,0,0,0,0,0,0,0,0,0]}],[{"header":{"parameterUnit":"kt","parameterCategory":2,"dx":1,"dy":1,"la1":30.253999710083008,"la2":30.299108505249023,"lo1":-89.0895004272461,"lo2":-89.04439544677734,"nx":28,"ny":28,"refTime":"2022-10-06T21:00:00:Z","depth":0,"parameterNumber":2,"parameterNumberName":"V-component_of_WINDS"},"data":[-2.6316,-2.6426,-2.6462,-2.6604,-2.6661,-2.6764,-2.6813,-2.688,-2.6942,-2.707,-2.7149,-2.7197,-2.7273,-2.7377,-2.7466,-2.7485,-2.7521,-2.7534,-2.7555,-2.7464,-2.7454,-2.7444,-2.7421,-2.754,-2.7541,-2.7645,-2.7646,-2.7646,-2.6249,-2.6306,-2.6391,-2.6498,-2.6572,-2.6581,-2.6667,-2.6729,-2.6821,-2.6898,-2.6978,-2.7093,-2.7189,-2.7262,-2.736,-2.7413,-2.7424,-2.7437,-2.7435,-2.7447,-2.7351,-2.7326,-2.7427,-2.7427,-2.7427,-2.7427,-2.7427,-2.7427,-2.6135,-2.6199,-2.6285,-2.6378,-2.6442,-2.6513,-2.6581,-2.6637,-2.6721,-2.6828,-2.6854,-2.6959,-2.7043,-2.7178,-2.7233,-2.7316,-2.7307,-2.7334,-2.7341,-2.7347,-2.7351,-2.7199,-2.7334,-2.7333,-2.7333,-2.7333,-2.7333,0,-2.6064,-2.609,-2.6174,-2.6269,-2.6338,-2.6415,-2.6492,-2.6534,-2.6601,-2.6668,-2.6767,-2.683,-2.6955,-2.7053,-2.7152,-2.7204,-2.7222,-2.7226,-2.7245,-2.7236,-2.7215,-2.723,-2.7074,-2.7223,-2.7222,-2.7221,-2.7221,-2.7221,-2.5954,-2.6023,-2.613,-2.6184,-2.6235,-2.6321,-2.638,-2.6434,-2.6494,-2.6596,-2.665,-2.6748,-2.683,-2.6982,-2.7048,-2.7141,-2.7151,-2.7205,-2.7166,-2.7153,-2.7156,-2.7152,-2.7161,-2.7212,-2.7213,-2.7214,-2.7215,0,-2.589,-2.5948,-2.6067,-2.6166,-2.6193,-2.6263,-2.6348,-2.6414,-2.6461,-2.6559,-2.6585,-2.666,-2.6756,-2.6814,-2.6934,-2.6962,-2.708,-2.7086,-2.7052,-2.7058,-2.7113,-2.7108,-2.7279,-2.7305,-2.718,-2.7181,-2.7182,0,-2.582,-2.5909,-2.5991,-2.6057,-2.6158,-2.621,-2.6308,-2.6359,-2.6432,-2.6509,-2.6537,-2.6609,-2.6671,-2.6751,-2.6791,-2.6898,-2.692,-2.6948,-2.6958,-2.6947,-2.6944,-2.6981,-2.6977,-2.6974,-2.6974,-2.6973,-2.6972,0,-2.5715,-2.5862,-2.5969,-2.6012,-2.6126,-2.6175,-2.6225,-2.6307,-2.6364,-2.6446,-2.6484,-2.6577,-2.6628,-2.6699,-2.675,-2.6722,-2.6881,-2.6852,-2.691,-2.6909,-2.6944,-2.6941,-2.7076,-2.6971,-2.6971,-2.697,-2.697,0,-2.5669,-2.5751,-2.5896,-2.5993,-2.6029,-2.6099,-2.6195,-2.6267,-2.6351,-2.6382,-2.6447,-2.6473,-2.6569,-2.6537,-2.6671,-2.662,-2.6669,-2.6704,-2.6709,-2.6723,-2.6687,-2.6758,-2.6879,-2.6895,-2.6734,-2.6732,-2.673,0,-2.5534,-2.5695,-2.5741,-2.5878,-2.5961,-2.5989,-2.6067,-2.614,-2.6187,-2.6265,-2.6316,-2.6403,-2.6391,-2.6427,-2.6485,-2.6542,-2.6608,-2.6534,-2.6648,-2.6651,-2.6628,-2.6738,-2.6743,-2.6845,-2.6706,-2.6708,-2.671,0,-2.5436,-2.5574,-2.5595,-2.5647,-2.5752,-2.5821,-2.591,-2.6008,-2.6058,-2.6136,-2.6214,-2.6336,-2.6334,-2.6391,-2.6422,-2.648,-2.6565,-2.6469,-2.6472,-2.6487,-2.6697,-2.6702,-2.6719,-2.6573,-2.6576,-2.6579,-2.669,0,-2.5358,-2.5446,-2.5504,-2.5616,-2.5678,-2.5765,-2.5827,-2.5884,-2.5908,-2.5955,-2.6069,-2.6144,-2.6243,-2.6276,-2.63,-2.6413,-2.6404,-2.6399,-2.6374,-2.6445,-2.6483,-2.6499,-2.6311,-2.6311,-2.631,-2.631,0,0,-2.5215,-2.5342,-2.5389,-2.5478,-2.5534,-2.5561,-2.565,-2.5707,-2.5822,-2.586,-2.5846,-2.603,-2.6091,-2.6223,-2.625,-2.6289,-2.6316,-2.6288,-2.641,-2.6421,-2.6431,-2.6471,-2.6486,-2.631,-2.6309,-2.6309,-2.6309,0,-2.52,-2.5261,-2.5347,-2.5409,-2.5501,-2.5547,-2.5567,-2.5664,-2.5698,-2.5809,-2.5831,-2.5906,-2.6051,-2.6114,-2.6165,-2.6273,-2.6286,-2.6298,-2.6338,-2.6404,-2.6415,-2.6425,-2.6467,-2.6481,-2.6308,-2.6308,-2.6308,0,-2.5117,-2.5188,-2.5236,-2.5362,-2.5423,-2.5507,-2.5495,-2.5583,-2.5646,-2.5672,-2.5782,-2.5831,-2.5919,-2.6035,-2.6089,-2.6078,-2.6256,-2.6209,-2.6213,-2.6221,-2.6288,-2.6302,-2.6314,-2.6157,-2.6156,-2.6155,0,0,-2.5096,-2.5177,-2.527,-2.5363,-2.54,-2.5469,-2.5519,-2.5548,-2.5627,-2.5658,-2.5722,-2.5798,-2.5884,-2.5938,-2.6021,-2.6139,-2.6163,-2.6188,-2.6195,-2.6201,-2.6212,-2.628,-2.6294,-2.6152,-2.6152,-2.6152,0,0,-2.5086,-2.5197,-2.5207,-2.5324,-2.5398,-2.5495,-2.5551,-2.5566,-2.5646,-2.5643,-2.5697,-2.5719,-2.5828,-2.5876,-2.583,-2.6014,-2.5987,-2.5999,-2.5979,-2.5989,-2.5996,-2.5983,-2.5829,0,0,0,0,0,-2.5102,-2.5183,-2.5191,-2.522,-2.5379,-2.5491,-2.5511,-2.5558,-2.5538,-2.5581,-2.5638,-2.5647,-2.5863,-2.5823,-2.5851,-2.5902,-2.6115,-2.6121,-2.6128,-2.6129,-2.6139,-2.6147,0,0,0,0,0,0,-2.5113,-2.5148,-2.5189,-2.5289,-2.5326,-2.5488,-2.5466,-2.5481,-2.5535,-2.5535,-2.5636,-2.565,-2.5692,-2.5812,-2.5836,-2.5884,-2.5821,-2.6117,-2.6123,-2.6128,-2.6133,-2.614,-2.6147,0,0,0,0,0,-2.5123,-2.5151,-2.5394,-2.5289,-2.532,-2.5401,-2.5463,-2.5476,-2.5518,-2.5605,-2.562,-2.5548,-2.5692,-2.5715,-2.5826,-2.5872,-2.5804,-2.5813,-2.6121,-2.6125,-2.6129,-2.6136,0,0,0,0,0,0,-2.513,-2.5163,-2.5401,-2.5413,-2.5261,-2.5393,-2.5415,-2.5471,-2.5586,-2.5601,-2.552,-2.5519,-2.5693,-2.5711,-2.5729,-2.5865,-2.5791,-2.58,-2.5806,-2.6124,-2.6128,-2.6131,0,0,0,0,0,0,-2.5148,-2.5172,-2.5407,-2.537,-2.5377,-2.5386,-2.5405,-2.5506,-2.5587,-2.5494,-2.5496,-2.5518,-2.5666,-2.5708,-2.5722,-2.5877,-2.5781,-2.5789,-2.5795,-2.5799,-2.6127,-2.613,0,0,0,0,0,0,-2.5159,-2.518,-2.5367,-2.5373,-2.538,-2.551,-2.5475,-2.5636,-2.5554,-2.5488,-2.5548,-2.5546,-2.5663,-2.5678,-2.5718,-2.5867,-2.5875,-2.5781,-2.5787,-2.5791,-2.5794,0,0,0,0,0,0,0,-2.5168,-2.5018,-2.5334,-2.5376,-2.5381,-2.5518,-2.5521,-2.5524,-2.5554,-2.5551,-2.5549,-2.5547,-2.5731,-2.5741,-2.575,-2.5858,0,0,-2.578,-2.5784,0,0,0,0,0,0,0,0,-2.501,-2.5016,-2.5334,-2.5337,-2.5339,-2.5518,-2.5521,-2.5523,-2.5553,-2.5551,-2.5549,-2.5548,-2.5734,-2.5742,-2.5749,0,0,0,0,0,0,0,0,0,0,0,0,0,0,0,-2.5335,-2.5337,0,-2.5518,-2.5521,-2.5523,-2.5553,-2.5551,-2.555,-2.5548,-2.5736,-2.5742,-2.5749,0,0,0,0,0,0,0,0,0,0,0,0,0,0,0,0,0,0,0,0,0,0,0,0,0,0,0,0,0,0,0,0,0,0,0,0,0,0,0,0,0,0,0,0,0,0,0,0,0,0,0,0,0,0,0,0,0,0,0,0,0,0,0,0,0,0,0,0,0]}]]]